Location: Newark
(37.0833°N, 15.2833°E)
Time: 10:35:30
(UTC+00:00)

ISS - Visible Passes

Search period start: 30 September 2020 00:00
Search period end: 10 October 2020 00:00
Orbit: 419 x 421 km, 51.6° (Epoch: 30 September)

Date Brightness Start Highest point End Pass type
(mag) Time Alt. Az. Time Alt. Az. Time Alt. Az.
30 Sep -1.2 18:20:04 10° N 18:21:08 12° NNE 18:21:08 12° NNE visible
01 Oct -0.5 19:08:27 10° NW 19:08:39 11° NNW 19:08:39 11° NNW visible
02 Oct -1.8 18:21:24 10° NNW 18:23:14 20° N 18:23:14 20° N visible
03 Oct -1.7 17:34:25 10° NNW 17:36:40 16° NNE 17:37:52 14° NE visible
03 Oct -0.4 19:10:27 10° NW 19:10:51 13° NW 19:10:51 13° NW visible
04 Oct -2.7 18:23:08 10° NW 18:25:33 41° NNW 18:25:33 41° NNW visible
05 Oct -2.9 17:35:57 10° NW 17:39:06 36° NE 17:40:21 26° E visible
05 Oct -0.2 19:13:09 10° W 19:13:21 11° W 19:13:21 11° W visible
06 Oct -2.4 18:25:23 10° WNW 18:28:16 36° WSW 18:28:16 36° WSW visible
07 Oct -3.6 17:37:53 10° NW 17:41:14 71° SW 17:43:21 21° SE visible
08 Oct -0.7 18:29:05 10° WSW 18:30:17 11° SW 18:31:27 10° SSW visible
09 Oct -1.2 17:40:30 10° W 17:43:05 20° SW 17:45:38 10° S visible
